Tracking 25963 objects as of 13-Aug-2022
HD Live streaming from Space Station
objects crossing your sky now

GALAXY 3R

Track GALAXY 3R now!
GALAXY 3R is classified as:


NORAD ID: 23741
Int'l Code: 1995-069A
Perigee: 35,772.6 km
Apogee: 35,845.8 km
Inclination: 12.0 °
Period: 1,436.9 minutes
Semi major axis: 42180 km
RCS: 12.3125 m2 (large)
Launch date: December 15, 1995
Source: United States (US)
Launch site: AIR FORCE EASTERN TEST RANGE (AFETR)

24 C-band, 16 Ku-band; North America, Caribbean; 140 television channels.
aabbcc
Your satellite tracking list
Your tracking list is empty




NASA's NSSDC Master Catalog

Two Line Element Set (TLE):
1 23741U 95069A   22224.53619978 -.00000093  00000-0  00000-0 0  9999
2 23741  11.9523  25.8495 0008669  79.2383 299.9809  1.00216655 97732
Source of the keplerian elements: AFSPC